"Pseudo-MPEC" for ZTF03XV

Created 2019 Jun 19 17:07:49 UT using Find_Orb

Click here for an explanation of pseudo-MPECs

 
 Astrometry: 
     ZTF03XV  C2019 06 05.33399017 44 21.82 -12 18 33.1    ~65K7 19.80rUNEOCPI41
     ZTF03XV  C2019 06 05.33445917 44 21.91 -12 18 34.6    ~65K7 19.85rUNEOCPI41
     ZTF03XV  C2019 06 05.33536017 44 22.04 -12 18 37.9    ~65K7 19.85rUNEOCPI41
     ZTF03XV  C2019 06 05.33580017 44 22.12 -12 18 39.5    ~65K7 19.76rUNEOCPI41
     ZTF03XV  C2019 06 05.33625017 44 22.18 -12 18 41.0    ~65K7 19.88rUNEOCPI41
     ZTF03XV  C2019 06 05.33670917 44 22.25 -12 18 42.7    ~65K7 19.93rUNEOCPI41
     ZTF03XV  C2019 06 05.33762017 44 22.39 -12 18 45.8    ~65K7 19.92rUNEOCPI41
     ZTF03XV  C2019 06 05.33806917 44 22.47 -12 18 47.5    ~65K7 19.97rUNEOCPI41
     ZTF03XV  C2019 06 05.33942017 44 22.68 -12 18 52.2    ~65K7 19.84rUNEOCPI41
     ZTF03XV  C2019 06 05.33987017 44 22.74 -12 18 53.9    ~65K7 19.85rUNEOCPI41
     ZTF03XV  C2019 06 05.34168117 44 23.03 -12 19 00.1    ~65K7 19.92rUNEOCPI41
     ZTF03XV  C2019 06 05.34303017 44 23.23 -12 19 05.1    ~65K7 20.02rUNEOCPI41
     ZTF03XV  C2019 06 05.34348017 44 23.30 -12 19 06.6    ~65K7 19.87rUNEOCPI41
     ZTF03XV  C2019 06 05.34394017 44 23.37 -12 19 08.1    ~65K7 19.86rUNEOCPI41
     ZTF03XV  C2019 06 05.34439017 44 23.44 -12 19 09.8    ~65K7 19.76rUNEOCPI41
     ZTF03XV  C2019 06 05.34485017 44 23.51 -12 19 11.4    ~65K7 19.91rUNEOCPI41
     ZTF03XV  C2019 06 05.34530017 44 23.58 -12 19 13.0    ~65K7 19.89rUNEOCPI41
     ZTF03XV  C2019 06 05.34620017 44 23.72 -12 19 16.2    ~65K7 19.79rUNEOCPI41
     ZTF03XV  C2019 06 05.34936017 44 24.21 -12 19 27.5    ~65K7 19.92rUNEOCPI41
     ZTF03XV  C2019 06 05.34981017 44 24.27 -12 19 28.9    ~65K7 19.82rUNEOCPI41
     ZTF03XV  C2019 06 05.35072017 44 24.42 -12 19 32.1    ~65K7 19.93rUNEOCPI41
     ZTF03XV  C2019 06 05.35117017 44 24.49 -12 19 33.6    ~65K7 19.98rUNEOCPI41
     ZTF03XV  C2019 06 05.35388017 44 24.91 -12 19 43.3    ~65K7 19.99rUNEOCPI41
     ZTF03XV  C2019 06 05.35524017 44 25.13 -12 19 47.9    ~65K7 20.02rUNEOCPI41
     ZTF03XV  C2019 06 05.35660017 44 25.33 -12 19 53.0    ~65K7 19.91rUNEOCPI41
     ZTF03XV  C2019 06 05.39091017 44 30.65 -12 21 53.7    ~65K7 20.15rUNEOCPI41
     ZTF03XV  C2019 06 06:Q_]9X-v^#`mAstrometryXp_M1UE7C=,pRQ.U+.?E`Y\y7COuG5J04
     ZTF03XV  C2019 06 06BY+[-p6R-ZImP!D81O*N`ce9.iO/XridSPZD(BXQ5.-ZcH8;f#.fJ04
     ZTF03XV KC2019 06 07eQpu0BtOn.sPPQ[@9hm`=ncUcO2qoRI?'3ay-kmodwFpXf/!@#;]Z84
     ZTF03XV KC2019 06 07KXmh-Y9W1PlOlk6]8,!5,qnL[IF^d)cCP+*0D;u;lhj^3[ALAvaMZ84
     ZTF03XV KC2019 06 07n/SOXygw(*@35redacted;$C3@rNf:sJN.EOu;iKU]._Z6iTIXYFZ84
     ZTF03XV KC2019 06 07lSst?3GCaUB;*=W`a\oY?#?Tnb.qAArgtk;m$cj@rf[W^l=ENg$HZ84
     ZTF03XV KC2019 06 07jw8`00'Rclick\HMcNQLqy_-VCysBN:v_Rxw8basnCAup^IeAsd@734
     ZTF03XV IC2019 06 07#Zmy..^mR6DDx,qmOlBPk;fO%G0y$jhereG$R/X6VdL.$`YKjKmj734
     ZTF03XV KC2019 06 09!8F=Yuv+P*uwbM,@=^CFHW%MGPA7R37Il2yrrOWmsufn8(R6yy8V104
     ZTF03XV KC2019 06 09Xe#/`n;t+df=c959p]?i2,]$hj:gCRC!F0$:KRyi?qSX,F(C?KU%104
     ZTF03XV KC2019 06 09c4nSN[v[YwS%b1tgdsW)jd;Q0CNOn^UWr#d^`[q8hwTKAdxRGCbN104
     ZTF03XV IC2019 06 09L+VS:eefhOg6x(kO\kTW/R0VuLrISWc0tNuapK(P;*(wOWYt1j)9L01
     ZTF03XV IC2019 06 09m'1q4BwwSq%(2O-:%HE.EN?XIQI,I#F^13LTd#a6(iHWwc]ybEE6L01
     ZTF03XV KC2019 06 11dW_oZl8l5v#HI13LrI/bK@94W8P7ggo6)r/ADrBluSY!L\0h.Q'BH21
     ZTF03XV KC2019 06 11.sse1:,Z@B=mQ_1OW-BRa!Sg^/FIjhWc;BNU(.PKLCVeT,Bb(N#]H21
     ZTF03XV KC2019 06 11[DuySAHC0Z`%V5[_wedI.@hbLd$T8'8tK3MX/P!?0bx@w3%Nxix,H21
     ZTF03XV KC2019 06 11d@forI6+MECU7qZ$y93On,90+Ya_6=explanation(h#l.L]9\7/E23
     ZTF03XV KC2019 06 11M.CQ-6?6+%Oo0/W)HGP5Www*Z7^pNmC6jNx'G4fM[7Ml@O9t%(RVE23

Station data:
(104) San Marcello Pistoiese  (N44.063037 E10.804200)  Italy. 0.40-m f/5
   reflector.
(734) Farpoint Observatory, Eskridge  (N38.890107 W96.001400)  US/Kansas.
   Observer G. Hug. 0.69-m reflector + CCD.
(E23) Arcadia  (S33.621199 E151.071190)  Australia/NSW.
(H21) Astronomical Research Observatory, Westfield  (N39.483057 W87.968270)
   US/Illinois. 0.76-m f/3.0 astrograph + CCD.
(I41) Palomar Mountain--ZTF  (N33.357340 W116.859780)  US/California. 1.2-m
   f/2.44 Oschin Schmidt + CCD.
(J04) ESA Optical Ground Station, Tenerife  (N28.300924 W16.511830)  Canary
   Islands (Spain).  Observer D. Abreu. Measurers M. Micheli, D. Koschny, E.
   Schwab, M. Busch, A. Knöfel. 1.0-m f/4.4 reflector + CCD.
(L01) Višnjan Observatory, Tičan  (N45.290900 E13.749300)  Croatia.
   Observers K. Korlević, E. Pettarin. Measurer E. Pettarin. 1.0-m f/2.9
   reflector + CCD.
(Z84) Calar Alto-Schmidt  (N37.224049 W2.548210)  Spain.

Orbital elements:  ZTF03XV
   Perihelion 2019 Jun 19.793833 +/- 0.0323 TT = 19:03:07 (JD 2458654.293833)
Epoch 2019 Jun 11.0 TT = JDT 2458645.5   Earth MOID: 0.1568   AutoNEOCP
M 357.41302497 +/- 0.059            (J2000 ecliptic)
n   0.29418057 +/- 0.00753          Peri.  184.08583 +/- 0.031
a   2.23903071 +/- 0.0379           Node    85.18846 +/- 0.015
e   0.4762987 +/- 0.00799           Incl.    9.94444 +/- 0.11
P   3.35                   H 22.9   G  0.15   U  9.5  
q 1.17258323 +/- 0.00207    Q 3.30547819 +/- 0.0731
From 44 observations 2019 June 5-11; mean residual 1".11
Residuals in arcseconds: 
190605 I41  .21+  .43-    190605 I41  .27+  .37-    190607 Z84  .55+  .37+    
190605 I41  .46+  .27-    190605 I41  .28+  .38-    190607 Z84  .55+  .29-    
190605 I41  .31+  .39-    190605 I41  .28+  .40-    190607 734  .57+  .30-    
190605 I41  .48+  .43-    190605 I41  .28+  .54-    190607 734  .46+  .60-    
190605 I41  .34+  .34-    190605 I41  .14+  .35-    190609 104  .02+  1.6-    
190605 I41  .32+  .42-    190605 I41  .26+  .34-    190609 104  .28+  .40-    
190605 I41  .30+  .30-    190605 I41  .27+  .25-    190609 104  .15+  1.7-    
190605 I41  .45+  .42-    190605 I41  .26+  .39-    190609 L01  1.4+  .56-    
190605 I41  .46+  .34-    190605 I41  .40+  .19-    190609 L01  .15-  .19-    
190605 I41  .31+  .45-    190605 I41  .24+  .49-    190611 H21  .28-  .33-    
190605 I41  .44+  .26-    190605 I41  .14+  .29-    190611 H21  .37-  .30-    
190605 I41  .31+  .49-    190606 J04  1.3+  .73-    190611 H21  .65-  .14-    
190605 I41  .31+  .40-    190606 J04  6.7-  6.3+    190611 E23  .72+  1.8+    
190605 I41  .29+  .28-    190607 Z84  .66+  .22-    190611 E23  .04+  .02-    
190605 I41  .29+  .39-    190607 Z84  .12+  .17+    

Ephemerides (geocentric):
Date (UTC) HH   RA              Dec         delta   r     elong  mag " sig PA
---- -- -- --  -------------   -----------  ------ ------ -----  --- ---- ---
2019 06 19 17  18 32 51.099   -28 21 26.81  .15887 1.1726 169.3 19.9 4.82  80
2019 06 19 18  18 33 00.668   -28 24 20.01  .15887 1.1726 169.3 19.9 4.86  80
2019 06 19 19  18 33 10.243   -28 27 13.13  .15887 1.1726 169.3 19.9 4.90  80
2019 06 19 20  18 33 19.822   -28 30 06.18  .15888 1.1726 169.3 19.9 4.94  80
2019 06 19 21  18 33 29.407   -28 32 59.17  .15888 1.1726 169.3 19.9 4.98  81
2019 06 19 22  18 33 38.997   -28 35 52.08  .15889 1.1726 169.2 19.9 5.02  81
2019 06 19 23  18 33 48.593   -28 38 44.92  .15890 1.1726 169.2 19.9 5.07  81
2019 06 20 00  18 33 58.193   -28 41 37.68  .15890 1.1726 169.2 19.9 5.11  81
2019 06 20 01  18 34 07.798   -28 44 30.37  .15891 1.1726 169.2 19.9 5.15  81
2019 06 20 02  18 34 17.409   -28 47 22.99  .15892 1.1726 169.2 19.9 5.19  81
2019 06 20 03  18 34 27.024   -28 50 15.52  .15892 1.1726 169.1 19.9 5.24  82
2019 06 20 04  18 34 36.645   -28 53 07.98  .15893 1.1726 169.1 19.9 5.28  82
2019 06 20 05  18 34 46.270   -28 56 00.37  .15894 1.1726 169.1 19.9 5.32  82
2019 06 20 06  18 34 55.901   -28 58 52.67  .15894 1.1726 169.1 19.9 5.37  82
2019 06 20 07  18 35 05.537   -29 01 44.90  .15895 1.1726 169.1 19.9 5.41  82
2019 06 20 08  18 35 15.177   -29 04 37.04  .15896 1.1726 169.0 19.9 5.46  82
2019 06 20 09  18 35 24.823   -29 07 29.10  .15897 1.1726 169.0 19.9 5.50  82
2019 06 20 10  18 35 34.473   -29 10 21.08  .15898 1.1726 169.0 19.9 5.55  83
2019 06 20 11  18 35 44.128   -29 13 12.98  .15899 1.1726 169.0 19.9 5.59  83
2019 06 20 12  18 35 53.788   -29 16 04.79  .15900 1.1726 169.0 19.9 5.64  83
2019 06 20 13  18 36 03.453   -29 18 56.51  .15901 1.1726 168.9 19.9 5.68  83
2019 06 20 14  18 36 13.123   -29 21 48.15  .15902 1.1726 168.9 19.9 5.73  83
2019 06 20 15  18 36 22.798   -29 24 39.71  .15903 1.1726 168.9 19.9 5.77  83
2019 06 20 16  18 36 32.477   -29 27 31.17  .15904 1.1726 168.9 19.9 5.82  84
2019 06 20 17  18 36 42.161   -29 30 22.55  .15905 1.1726 168.9 19.9 5.87  84
2019 06 20 18  18 36 51.850   -29 33 13.84  .15906 1.1726 168.8 19.9 5.91  84
2019 06 20 19  18 37 01.544   -29 36 05.03  .15907 1.1726 168.8 19.9 5.96  84
2019 06 20 20  18 37 11.242   -29 38 56.14  .15908 1.1726 168.8 19.9 6.01  84
2019 06 20 21  18 37 20.945   -29 41 47.15  .15910 1.1726 168.8 19.9 6.06  84
2019 06 20 22  18 37 30.653   -29 44 38.07  .15911 1.1726 168.7 19.9 6.11  84
2019 06 20 23  18 37 40.366   -29 47 28.90  .15912 1.1727 168.7 19.9 6.15  85
2019 06 21 00  18 37 50.083   -29 50 19.63  .15913 1.1727 168.7 19.9 6.20  85
2019 06 21 01  18 37 59.804   -29 53 10.26  .15915 1.1727 168.7 19.9 6.25  85
2019 06 21 02  18 38 09.531   -29 56 00.80  .15916 1.1727 168.6 19.9 6.30  85
2019 06 21 03  18 38 19.261   -29 58 51.25  .15917 1.1727 168.6 19.9 6.35  85
2019 06 21 04  18 38 28.997   -30 01 41.59  .15919 1.1727 168.6 19.9 6.40  85
2019 06 21 05  18 38 38.737   -30 04 31.83  .15920 1.1727 168.6 19.9 6.45  85
2019 06 21 06  18 38 48.481   -30 07 21.98  .15922 1.1727 168.6 19.9 6.50  86
2019 06 21 07  18 38 58.230   -30 10 12.02  .15923 1.1727 168.5 19.9 6.55  86
2019 06 21 08  18 39 07.983   -30 13 01.97  .15925 1.1727 168.5 19.9 6.60  86
2019 06 21 09  18 39 17.741   -30 15 51.81  .15926 1.1727 168.5 19.9 6.65  86
2019 06 21 10  18 39 27.503   -30 18 41.54  .15928 1.1727 168.5 19.9 6.71  86
2019 06 21 11  18 39 37.270   -30 21 31.17  .15929 1.1727 168.4 19.9 6.76  86
2019 06 21 12  18 39 47.041   -30 24 20.70  .15931 1.1727 168.4 19.9 6.81  87
2019 06 21 13  18 39 56.816   -30 27 10.12  .15933 1.1727 168.4 19.9 6.86  87
2019 06 21 14  18 40 06.596   -30 29 59.44  .15934 1.1727 168.4 19.9 6.91  87
2019 06 21 15  18 40 16.380   -30 32 48.65  .15936 1.1728 168.3 19.9 6.97  87
2019 06 21 16  18 40 26.168   -30 35 37.75  .15938 1.1728 168.3 19.9 7.02  87